Regional Weather Roundup
Issued by NWS

Home | Current Version | Previous Version | Text Only | Print | Product List | Glossary Off
Versions: 1 2 3 4 5 6 7 8 9 10 11 12 13 14 15 16 17 18 19 20 21 22 23 24 25 26 27 28 29 30 31 32 33 34 35 36 37 38 39 40 41 42 43 44 45 46 47 48 49 50

000
ASUS44 KMEG 301400
RWRTN
TENNESSEE HOURLY STATE WEATHER ROUNDUP
NATIONAL WEATHER SERVICE MEMPHIS TN
900 AM CDT WED JUL 30 2014

TNZ002-004-019-021-049-052-054-088>092-301500-
WEST TENNESSEE

CITY           SKY/WX    TMP DP  RH WIND       PRES   REMARKS
MEMPHIS INTL   MOSUNNY   73  57  57 S3        30.13R
NWS MEMPHIS      N/A     71 N/A N/A MISG        N/A
JACKSON        MOSUNNY   68  58  70 CALM      30.13S
DYERSBURG      SUNNY     72  54  53 CALM      30.13S
UNION CITY     SUNNY     64  61  88 CALM      30.12S
PARIS          SUNNY     68  57  68 CALM      30.14S
LEXINGTON      SUNNY     66  59  77 CALM      30.12S
SAVANNAH       SUNNY     66  61  82 CALM      30.14R
$$

TNZ008-025-027-028-033-062-065-066-301500-
NORTH MIDDLE TENNESSEE

CITY           SKY/WX    TMP DP  RH WIND       PRES   REMARKS
NASHVILLE      PTSUNNY   69  60  73 CALM      30.13S
CLARKSVILLE    PTSUNNY   69  57  65 VRB3      30.13R
COOKEVILLE     SUNNY     64  57  77 CALM      30.13S
CROSSVILLE     SUNNY     67  54  63 CALM      30.16R
$$

TNZ061-075-076-078-094-096-097-301500-
SOUTH MIDDLE TENNESSEE

CITY           SKY/WX    TMP DP  RH WIND       PRES   REMARKS
FAYETTEVILLE   SUNNY     64  55  72 CALM      30.13R
TULLAHOMA      SUNNY     66  54  63 E6        30.14R
WINCHESTER     SUNNY     66  55  68 CALM      30.12F
MCMINNVILLE    SUNNY     64  64 100 N3        30.13F
COLUMBIA       SUNNY     68  61  77 CALM      30.12S
SHELBYVILLE    SUNNY     70  61  73 CALM      30.13S
$$

TNZ017-018-042-046-047-301500-
NORTHEAST TENNESSEE

CITY           SKY/WX    TMP DP  RH WIND       PRES   REMARKS
TRI CITIES     SUNNY     63  54  72 CALM      30.16R
ELIZABETHTON   SUNNY     63  54  72 CALM        N/A
$$

TNZ012-013-036-069-073-074-301500-
CENTRAL EAST TENNESSEE

CITY           SKY/WX    TMP DP  RH WIND       PRES   REMARKS
KNOXVILLE      MOSUNNY   66  57  72 NE6       30.11F
OAK RIDGE      SUNNY     66  57  72 E3        30.14S
GATLINBURG     SUNNY     63  54  72 E3        30.12F
$$

TNZ083-085-099-301500-
SOUTHEAST TENNESSEE

CITY           SKY/WX    TMP DP  RH WIND       PRES   REMARKS
CHATTANOOGA    PTSUNNY   69  55  60 N9        30.11S
$$

SKY/WX REPORTED AS FAIR MEANS FEW OR NO CLOUDS BELOW
12 THOUSAND FEET.



USA.gov is the U.S. government's official web portal to all federal, state and local government web resources and services.